Opa-locka, FL

5:32 PM EST on February 23, 2017 (GMT -0500)
Opa Locka

Weather History for KOPF - October, 2012

Change the Weather History Date:

Sunday, October 7, 2012

  Actual Average Record
Temperature  
Mean Temperature 80 °F -  
Max Temperature 84 °F 87 °F 93 °F (1986)
Min Temperature 75 °F 72 °F 64 °F (1988)
Cooling Degree Days 14    
Growing Degree Days 30 (Base 50)    
Moisture  
Dew Point 75 °F    
Average Humidity 88    
Maximum Humidity 94    
Minimum Humidity 76    
Precipitation  
Precipitation 0.31 in - - ()
Sea Level Pressure  
Sea Level Pressure 29.95 in    
Wind  
Wind Speed 4 mph (NE)    
Max Wind Speed 10 mph    
Max Gust Speed -    
Visibility 10 miles    
Events Rain    
Averages and records for this station are not official NWS values.
T = Trace of Precipitation, MM = Missing Value Source: NWS Daily Summary

Daily Weather History Graph

Daily Weather History Graph

Search for Another Location

Airport or City:

Trip Planner

Search our weather history database for the weather conditions in past years. The results will help you decide how hot, cold, wet, or windy it might be!

Date:

Astronomy

Oct. 07, 2012 Rise Set
Actual Time 7:16 AM EDT 7:00 PM EDT
Civil Twilight 6:53 AM EDT 7:23 PM EDT
Nautical Twilight 6:26 AM EDT 7:50 PM EDT
Astronomical Twilight 5:59 AM EDT 8:17 PM EDT
Moon No Moon Rise 1:29 PM EDT (10/7)
Length of Visible Light 12h 30m
Length of Day
11h 44m
Waning Gibbous, 56% of the Moon is Illuminated
Oct 7
Waning Gibbous
Oct 8
Last Quarter
Oct 15
New
Oct 21
First Quarter
Oct 29
Full

Hourly Weather History & Observations

Time (EDT) Temp. Heat Index Dew Point Humidity Pressure Visibility Wind Dir Wind Speed Gust Speed Precip Events Conditions
12:53 AM 77.0 °F - 75.0 °F 94% 29.95 in 10.0 mi North 3.5 mph - N/A   Partly Cloudy
1:53 AM 75.0 °F - 72.0 °F 90% 29.94 in 10.0 mi NNE 4.6 mph - N/A   Clear
2:53 AM 75.0 °F - 72.0 °F 90% 29.92 in 10.0 mi East 4.6 mph - N/A   Partly Cloudy
3:53 AM 75.0 °F - 73.0 °F 94% 29.89 in 10.0 mi SSW 4.6 mph - N/A   Clear
4:53 AM 75.9 °F - 73.0 °F 91% 29.89 in 10.0 mi Calm Calm - N/A   Clear
5:53 AM 75.9 °F - 73.9 °F 94% 29.90 in 10.0 mi NNW 4.6 mph - N/A   Clear
6:53 AM 75.9 °F - 73.9 °F 94% 29.91 in 10.0 mi North 6.9 mph - N/A   Clear
7:53 AM 75.9 °F - 73.0 °F 91% 29.93 in 10.0 mi NNE 4.6 mph - N/A   Clear
8:53 AM 79.0 °F - 75.0 °F 88% 29.95 in 10.0 mi North 5.8 mph - N/A   Clear
9:53 AM 84.0 °F 92.6 °F 75.9 °F 76% 29.96 in 10.0 mi NNE 5.8 mph - N/A   Clear
10:45 AM 80.6 °F 87.1 °F 77.0 °F 89% 29.97 in 6.0 mi Variable 4.6 mph - 0.05 in Rain Heavy Rain
10:53 AM 81.0 °F 87.3 °F 75.9 °F 85% 29.98 in 8.0 mi Variable 4.6 mph - 0.05 in Rain Light Rain
11:19 AM 82.4 °F 90.9 °F 77.0 °F 84% 29.97 in 10.0 mi ENE 8.1 mph - 0.01 in   Overcast
11:53 AM 82.9 °F 90.8 °F 75.9 °F 79% 29.98 in 10.0 mi ENE 8.1 mph - 0.01 in   Partly Cloudy
12:53 PM 82.0 °F 87.9 °F 73.9 °F 76% 29.97 in 10.0 mi NE 6.9 mph - N/A   Mostly Cloudy
1:53 PM 75.9 °F - 73.0 °F 91% 29.96 in 4.0 mi East 10.4 mph - 0.14 in Rain Heavy Rain
2:53 PM 81.0 °F 87.3 °F 75.9 °F 85% 29.93 in 10.0 mi SE 5.8 mph - 0.03 in   Clear
3:53 PM 82.0 °F 89.4 °F 75.9 °F 82% 29.93 in 10.0 mi ESE 5.8 mph - N/A   Partly Cloudy
4:53 PM 81.0 °F 87.9 °F 77.0 °F 88% 29.93 in 10.0 mi Calm Calm - N/A   Scattered Clouds
5:53 PM 81.0 °F 87.9 °F 77.0 °F 88% 29.93 in 10.0 mi Calm Calm - 0.03 in Rain Light Rain
6:53 PM 80.1 °F 85.4 °F 75.9 °F 87% 29.94 in 10.0 mi Calm Calm - 0.03 in Rain Light Rain
7:53 PM 80.1 °F 85.8 °F 77.0 °F 90% 29.96 in 10.0 mi North 3.5 mph - 0.02 in   Clear
8:53 PM 79.0 °F - 77.0 °F 94% 29.97 in 10.0 mi NE 5.8 mph - N/A   Clear
9:53 PM 79.0 °F - 75.9 °F 90% 29.99 in 10.0 mi NNE 3.5 mph - N/A   Clear
10:53 PM 78.1 °F - 75.9 °F 93% 29.99 in 10.0 mi Calm Calm - N/A   Clear
11:53 PM 78.1 °F - 75.9 °F 93% 29.96 in 10.0 mi Calm Calm - N/A   Clear